EW6393 Weather Reports


Display with metric or nautical units.
time (UTC)temp
F
wind
direction
speed
MPH
gust
MPH
rain 1hr
in
rain 24hr
in
rain mn
in
humidity
%
barometer
mb
20260508181119 70 266 5.0 11.0 0.00 0.00 0.00 27 1018.4
20260508180620 70 302 3.0 12.0 0.00 0.00 0.00 27 1018.4
20260508180148 71 282 5.0 12.0 0.00 0.00 0.00 28 1018.5
20260508175636 71 288 3.0 6.0 0.00 0.00 0.00 31 1018.4
20260508175117 71 250 2.0 6.0 0.00 0.00 0.00 31 1018.5
20260508174618 70 238 3.0 6.0 0.00 0.00 0.00 31 1018.5
20260508174119 70 322 0.0 5.0 0.00 0.00 0.00 33 1018.5
20260508173627 69 297 1.0 8.0 0.00 0.00 0.00 35 1018.6
20260508173128 69 266 4.0 9.0 0.00 0.00 0.00 33 1018.6
20260508172636 70 282 6.0 9.0 0.00 0.00 0.00 31 1018.5
20260508172117 70 285 3.0 7.0 0.00 0.00 0.00 30 1018.5
20260508171616 70 235 1.0 9.0 0.00 0.00 0.00 30 1018.5
20260508171116 70 275 4.0 9.0 0.00 0.00 0.00 30 1018.5
20260508170624 70 279 1.0 4.0 0.00 0.00 0.00 32 1018.5
20260508170124 69 284 0.0 4.0 0.00 0.00 0.00 30 1018.4
20260508165629 69 227 1.0 4.0 0.00 0.00 0.00 32 1018.4
20260508165128 68 310 2.0 5.0 0.00 0.00 0.00 28 1018.4
20260508164635 68 246 1.0 5.0 0.00 0.00 0.00 30 1018.4
20260508164115 68 57 1.0 3.0 0.00 0.00 0.00 31 1018.4
20260508163623 68 288 2.0 3.0 0.00 0.00 0.00 33 1018.4
20260508163123 68 113 1.0 4.0 0.00 0.00 0.00 33 1018.4
20260508162630 68 287 1.0 4.0 0.00 0.00 0.00 34 1018.3
20260508162128 68 288 2.0 5.0 0.00 0.00 0.00 33 1018.3
20260508161629 67 320 3.0 5.0 0.00 0.00 0.00 34 1018.3
20260508161119 68 285 2.0 5.0 0.00 0.00 0.00 34 1018.3
20260508160618 68 288 2.0 4.0 0.00 0.00 0.00 33 1018.1
20260508160146 68 300 2.0 4.0 0.00 0.00 0.00 35 1018.1
20260508155653 67 257 1.0 3.0 0.00 0.00 0.00 34 1018.1
20260508155113 67 303 1.0 3.0 0.00 0.00 0.00 34 1018.1
20260508154613 67 235 1.0 3.0 0.00 0.00 0.00 32 1018.0
20260508154119 67 292 1.0 2.0 0.00 0.00 0.00 33 1018.0
20260508153620 67 270 1.0 2.0 0.00 0.00 0.00 34 1018.0
20260508153149 67 286 1.0 2.0 0.00 0.00 0.00 34 1018.0
20260508152628 67 237 0.0 1.0 0.00 0.00 0.00 34 1018.0
20260508152138 67 237 1.0 1.0 0.00 0.00 0.00 35 1017.9
20260508151617 66 170 0.0 1.0 0.00 0.00 0.00 36 1017.9
20260508151118 65 253 0.0 1.0 0.00 0.00 0.00 37 1017.9
20260508150626 64 253 0.0 1.0 0.00 0.00 0.00 37 1017.9
20260508150127 63 253 0.0 1.0 0.00 0.00 0.00 39 1017.8
20260508145635 63 262 0.0 1.0 0.00 0.00 0.00 40 1017.7
20260508145116 63 58 0.0 1.0 0.00 0.00 0.00 40 1017.7
20260508144616 62 61 0.0 1.0 0.00 0.00 0.00 39 1017.7
20260508144117 62 61 0.0 1.0 0.00 0.00 0.00 43 1017.7
20260508143646 62 61 0.0 0.0 0.00 0.00 0.00 43 1017.7
20260508143133 63 61 0.0 0.0 0.00 0.00 0.00 41 1017.7
20260508142613 63 61 0.0 0.0 0.00 0.00 0.00 41 1017.7
20260508142113 63 61 0.0 0.0 0.00 0.00 0.00 41 1017.6
20260508141616 62 61 0.0 0.0 0.00 0.00 0.00 41 1017.6
20260508141123 61 61 0.0 1.0 0.00 0.00 0.00 42 1017.5
20260508140624 59 61 0.0 1.0 0.00 0.00 0.00 44 1017.5
20260508140151 59 61 0.0 1.0 0.00 0.00 0.00 44 1017.5
20260508135611 58 61 0.0 1.0 0.00 0.00 0.00 45 1017.4
20260508135112 58 61 0.0 0.0 0.00 0.00 0.00 45 1017.3
20260508134621 56 61 0.0 1.0 0.00 0.00 0.00 48 1017.3
20260508134122 56 61 0.0 1.0 0.00 0.00 0.00 47 1017.3
20260508133630 56 61 0.0 1.0 0.00 0.00 0.00 45 1017.2
20260508133111 55 61 0.0 1.0 0.00 0.00 0.00 44 1017.1
20260508132612 55 61 1.0 2.0 0.00 0.00 0.00 45 1017.0
20260508132113 55 61 1.0 2.0 0.00 0.00 0.00 43 1017.0
20260508131620 55 36 0.0 2.0 0.00 0.00 0.00 44 1017.0
20260508131121 55 55 0.0 1.0 0.00 0.00 0.00 45 1017.0
20260508130628 55 56 0.0 2.0 0.00 0.00 0.00 44 1016.8
20260508130129 55 56 1.0 2.0 0.00 0.00 0.00 45 1016.8
20260508125637 54 56 1.0 2.0 0.00 0.00 0.00 45 1016.8
20260508125118 54 1 0.0 1.0 0.00 0.00 0.00 45 1016.8
20260508124618 54 86 0.0 1.0 0.00 0.00 0.00 46 1016.7
20260508124127 54 86 0.0 1.0 0.00 0.00 0.00 47 1016.5
20260508123627 54 87 1.0 2.0 0.00 0.00 0.00 46 1016.5
20260508123129 54 90 1.0 2.0 0.00 0.00 0.00 47 1016.5
20260508122637 54 98 0.0 2.0 0.00 0.00 0.00 48 1016.5
20260508122118 54 94 1.0 2.0 0.00 0.00 0.00 48 1016.5
20260508121620 54 63 0.0 1.0 0.00 0.00 0.00 48 1016.3
20260508121127 54 63 0.0 2.0 0.00 0.00 0.00 48 1016.3
20260508120655 54 76 1.0 2.0 0.00 0.00 0.00 48 1016.3
20260508120113 54 96 1.0 2.0 0.00 0.00 0.00 49 1016.3
20260508115613 55 85 1.0 1.0 0.00 0.00 0.00 49 1016.3
20260508115141 55 85 0.0 1.0 0.00 0.00 0.00 48 1016.3
20260508114624 56 85 1.0 1.0 0.00 0.00 0.00 46 1016.2
20260508114125 56 85 1.0 1.0 0.00 0.00 0.00 46 1016.1
20260508113635 55 89 1.0 2.0 0.00 0.00 0.00 46 1016.1
20260508113115 55 90 1.0 2.0 0.00 0.00 0.00 48 1016.1
20260508112616 55 108 1.0 1.0 0.00 0.00 0.00 47 1016.2
20260508112144 56 119 0.0 1.0 0.00 0.00 0.00 46 1016.2
20260508111624 56 107 1.0 1.0 0.00 0.00 0.00 46 1016.2
20260508111125 56 72 1.0 1.0 0.00 0.00 0.00 46 1016.2
20260508110633 56 73 0.0 2.0 0.00 0.00 0.00 46 1016.1
20260508110113 56 58 0.0 2.0 0.00 0.00 0.00 46 1016.2
20260508105641 56 64 1.0 2.0 0.00 0.00 0.00 46 1016.2
20260508105129 56 72 1.0 2.0 0.00 0.00 0.00 46 1016.2
20260508104629 56 72 1.0 1.0 0.00 0.00 0.00 45 1016.2
20260508104137 55 72 0.0 1.0 0.00 0.00 0.00 47 1016.1
20260508103616 56 72 0.0 1.0 0.00 0.00 0.00 46 1016.0
20260508103117 55 72 0.0 1.0 0.00 0.00 0.00 47 1016.0
20260508102617 55 95 1.0 1.0 0.00 0.00 0.00 47 1015.9
20260508102125 55 62 0.0 1.0 0.00 0.00 0.00 47 1015.9
20260508101626 55 62 0.0 1.0 0.00 0.00 0.00 47 1015.8
20260508101134 55 62 1.0 1.0 0.00 0.00 0.00 47 1015.8
20260508100615 56 62 0.0 2.0 0.00 0.00 0.00 46 1015.8
20260508100143 56 62 1.0 2.0 0.00 0.00 0.00 45 1015.8
20260508095622 55 68 1.0 2.0 0.00 0.00 0.00 47 1015.8
20260508095124 55 90 0.0 1.0 0.00 0.00 0.00 47 1015.7
20260508094632 56 90 0.0 2.0 0.00 0.00 0.00 46 1015.8
20260508094133 56 97 1.0 2.0 0.00 0.00 0.00 47 1015.7
20260508093619 56 122 0.0 1.0 0.00 0.00 0.00 45 1015.7
20260508093119 56 121 0.0 1.0 0.00 0.00 0.00 45 1015.6
20260508092627 56 122 0.0 1.0 0.00 0.00 0.00 46 1015.6
20260508092128 56 122 0.0 1.0 0.00 0.00 0.00 45 1015.6
20260508091629 57 122 0.0 1.0 0.00 0.00 0.00 44 1015.4
20260508091137 57 98 0.0 1.0 0.00 0.00 0.00 43 1015.4
20260508090617 56 62 1.0 1.0 0.00 0.00 0.00 44 1015.5
20260508090118 56 60 0.0 2.0 0.00 0.00 0.00 45 1015.4
20260508085625 57 60 0.0 2.0 0.00 0.00 0.00 43 1015.5
20260508085146 56 84 0.0 1.0 0.00 0.00 0.00 45 1015.5
20260508084632 57 84 0.0 1.0 0.00 0.00 0.00 44 1015.5
20260508084114 58 84 0.0 2.0 0.00 0.00 0.00 43 1015.6
20260508083642 58 84 0.0 2.0 0.00 0.00 0.00 42 1015.5
20260508083121 57 75 0.0 2.0 0.00 0.00 0.00 44 1015.7
20260508082623 58 124 0.0 1.0 0.00 0.00 0.00 43 1015.6
20260508082130 58 63 0.0 0.0 0.00 0.00 0.00 41 1015.6
20260508081611 58 63 0.0 1.0 0.00 0.00 0.00 42 1015.6
20260508081112 58 63 0.0 1.0 0.00 0.00 0.00 43 1015.5
20260508080612 58 63 0.0 0.0 0.00 0.00 0.00 42 1015.5
20260508080121 59 63 0.0 1.0 0.00 0.00 0.00 41 1015.5
20260508075622 59 63 0.0 2.0 0.00 0.00 0.00 39 1015.5
20260508075130 59 69 1.0 2.0 0.00 0.00 0.00 40 1015.5
20260508074637 60 75 1.0 2.0 0.00 0.00 0.00 39 1015.5
20260508074118 60 75 1.0 2.0 0.00 0.00 0.00 39 1015.4
20260508073619 60 67 1.0 2.0 0.00 0.00 0.00 38 1015.5
20260508073120 60 58 0.0 1.0 0.00 0.00 0.00 39 1015.4
20260508072627 60 58 1.0 1.0 0.00 0.00 0.00 39 1015.4
20260508072128 60 58 1.0 2.0 0.00 0.00 0.00 39 1015.4
20260508071629 60 60 1.0 1.0 0.00 0.00 0.00 38 1015.4
20260508071136 60 106 0.0 1.0 0.00 0.00 0.00 39 1015.4
20260508070618 60 106 0.0 1.0 0.00 0.00 0.00 39 1015.3
20260508070117 60 107 0.0 1.0 0.00 0.00 0.00 39 1015.3
20260508065645 60 80 0.0 1.0 0.00 0.00 0.00 39 1015.3
20260508065132 60 79 0.0 2.0 0.00 0.00 0.00 39 1015.2
20260508064633 60 79 1.0 2.0 0.00 0.00 0.00 38 1015.2
20260508064113 60 86 1.0 2.0 0.00 0.00 0.00 38 1015.2
20260508063621 61 84 1.0 3.0 0.00 0.00 0.00 38 1015.3
20260508063123 60 83 1.0 3.0 0.00 0.00 0.00 38 1015.3
20260508062651 60 53 1.0 2.0 0.00 0.00 0.00 39 1015.4
20260508062138 60 127 1.0 2.0 0.00 0.00 0.00 39 1015.3
20260508061618 60 103 0.0 2.0 0.00 0.00 0.00 39 1015.4
20260508061120 60 113 1.0 2.0 0.00 0.00 0.00 39 1015.3
20260508060648 60 107 1.0 2.0 0.00 0.00 0.00 39 1015.2
20260508060128 60 93 0.0 2.0 0.00 0.00 0.00 38 1015.2
20260508055636 61 93 0.0 2.0 0.00 0.00 0.00 37 1015.2
20260508055117 61 42 0.0 1.0 0.00 0.00 0.00 37 1015.1
20260508054617 61 63 0.0 1.0 0.00 0.00 0.00 37 1015.2
20260508054153 61 91 0.0 2.0 0.00 0.00 0.00 37 1015.1
20260508053613 61 89 1.0 2.0 0.00 0.00 0.00 36 1015.0
20260508053120 61 108 0.0 1.0 0.00 0.00 0.00 36 1015.0
20260508052620 61 102 0.0 1.0 0.00 0.00 0.00 37 1014.9
20260508052127 60 86 1.0 1.0 0.00 0.00 0.00 38 1014.9
20260508051628 60 69 0.0 1.0 0.00 0.00 0.00 39 1014.9
20260508051129 61 69 0.0 1.0 0.00 0.00 0.00 38 1014.9
20260508050638 61 68 0.0 1.0 0.00 0.00 0.00 37 1014.9
20260508050116 62 68 0.0 2.0 0.00 0.00 0.00 35 1014.8
20260508045617 62 72 1.0 1.0 0.00 0.00 0.00 35 1014.8
20260508045124 62 79 0.0 1.0 0.00 0.00 0.00 35 1014.8
20260508044625 63 95 0.0 3.0 0.00 0.00 0.00 35 1014.8
20260508044133 63 78 1.0 3.0 0.00 0.00 0.00 35 1014.9
20260508043613 62 75 0.0 1.0 0.00 0.00 0.00 35 1014.9
20260508043135 62 68 0.0 1.0 0.00 0.00 0.00 35 1014.8
20260508042622 63 68 0.0 1.0 0.00 0.00 0.00 35 1014.8
20260508042123 63 68 0.0 1.0 0.00 0.00 0.00 34 1014.8
20260508041625 63 69 0.0 1.0 0.00 0.00 0.00 34 1014.8
20260508040624 63 63 0.0 2.0 0.00 0.00 0.00 33 1014.8
20260508040124 63 36 1.0 2.0 0.00 0.00 0.00 33 1014.8
20260508035618 63 31 0.0 2.0 0.00 0.00 0.00 35 1014.7
20260508035118 63 62 0.0 2.0 0.00 0.00 0.00 34 1014.6
20260508034619 63 52 0.0 2.0 0.00 0.00 0.00 34 1014.5
20260508034127 63 34 0.0 2.0 0.00 0.00 0.00 34 1014.5
20260508033629 64 77 0.0 1.0 0.00 0.00 0.00 34 1014.5
20260508033129 64 77 0.0 2.0 0.00 0.00 0.00 34 1014.5
20260508032637 64 77 0.0 2.0 0.00 0.00 0.00 34 1014.5
20260508031653 64 87 1.0 1.0 0.00 0.00 0.00 34 1014.5
20260508031115 64 64 0.0 1.0 0.00 0.00 0.00 35 1014.4
20260508030615 64 64 0.0 1.0 0.00 0.00 0.00 34 1014.3
20260508030123 65 63 0.0 2.0 0.00 0.00 0.00 34 1014.2
20260508025623 65 63 0.0 2.0 0.00 0.00 0.00 33 1014.2
20260508025123 66 354 0.0 3.0 0.00 0.00 0.00 32 1014.3
20260508024631 66 44 0.0 3.0 0.00 0.00 0.00 32 1014.2
20260508024112 67 63 1.0 2.0 0.00 0.00 0.00 31 1014.3
20260508023613 68 53 1.0 2.0 0.00 0.00 0.00 30 1014.2
20260508023115 69 271 0.0 1.0 0.00 0.00 0.00 29 1014.2
20260508022622 70 262 0.0 1.0 0.00 0.00 0.00 28 1014.2
20260508022122 71 262 0.0 1.0 0.00 0.00 0.00 28 1014.2
20260508021630 73 262 0.0 0.0 0.00 0.00 0.00 26 1014.2
20260508021131 73 262 0.0 1.0 0.00 0.00 0.00 26 1014.2
20260508020639 74 262 0.0 1.0 0.00 0.00 0.00 25 1014.1
20260508020119 75 262 0.0 1.0 0.00 0.00 0.00 25 1014.0
20260508015627 75 262 0.0 1.0 0.00 0.00 0.00 25 1014.0
20260508015127 75 316 0.0 3.0 0.00 0.00 0.00 25 1014.0
20260508014628 75 317 1.0 3.0 0.00 0.00 0.00 23 1014.0
20260508014118 75 349 1.0 3.0 0.00 0.00 0.00 23 1014.0
20260508013618 75 264 1.0 5.0 0.00 0.00 0.00 24 1014.2
20260508013119 75 254 2.0 5.0 0.00 0.00 0.00 23 1014.2
20260508012647 75 305 2.0 5.0 0.00 0.00 0.00 23 1014.2
20260508012126 75 282 3.0 5.0 0.00 0.00 0.00 24 1014.1
20260508011635 75 276 1.0 3.0 0.00 0.00 0.00 23 1014.1
20260508011137 76 274 2.0 3.0 0.00 0.00 0.00 23 1014.2
20260508010623 76 323 1.0 2.0 0.00 0.00 0.00 22 1014.2
20260508010122 76 277 0.0 2.0 0.00 0.00 0.00 22 1014.1
20260508005624 76 287 1.0 6.0 0.00 0.00 0.00 22 1014.1
20260508005112 76 252 1.0 3.0 0.00 0.00 0.00 22 1014.2
20260508004612 75 270 1.0 4.0 0.00 0.00 0.00 23 1014.2
20260508004113 75 205 2.0 7.0 0.00 0.00 0.00 23 1014.4
20260508003621 76 262 4.0 7.0 0.00 0.00 0.00 23 1014.4
20260508003122 76 254 1.0 5.0 0.00 0.00 0.00 23 1014.4
20260508002650 76 284 1.0 5.0 0.00 0.00 0.00 22 1014.4
20260508002130 75 302 0.0 4.0 0.00 0.00 0.00 23 1014.5
20260508001638 74 236 1.0 4.0 0.00 0.00 0.00 24 1014.5
20260508001118 73 144 1.0 3.0 0.00 0.00 0.00 23 1014.6
20260508000617 73 287 0.0 2.0 0.00 0.00 0.00 26 1014.6
20260508000123 73 313 1.0 4.0 0.00 0.00 0.00 25 1014.7
20260507235625 73 5 2.0 4.0 0.00 0.00 0.00 25 1014.7
20260507235126 73 249 2.0 5.0 0.00 0.00 0.00 25 1014.7
20260507234634 73 244 2.0 5.0 0.00 0.00 0.00 24 1014.8
20260507234136 73 259 1.0 5.0 0.00 0.00 0.00 24 1014.8
20260507233640 73 276 1.0 4.0 0.00 0.00 0.00 25 1014.9
20260507233119 73 288 2.0 4.0 0.00 0.00 0.00 24 1014.9
20260507232628 74 273 1.0 7.0 0.00 0.00 0.00 23 1015.0
20260507232149 74 229 2.0 6.0 0.00 0.00 0.00 23 1015.1
20260507231636 75 285 3.0 6.0 0.00 0.00 0.00 23 1015.1
20260507231117 75 297 1.0 4.0 0.00 0.00 0.00 24 1015.2
20260507230617 74 20 0.0 4.0 0.00 0.00 0.00 24 1015.2
20260507230124 74 293 0.0 5.0 0.00 0.00 0.00 23 1015.4
20260507225625 74 318 1.0 5.0 0.00 0.00 0.00 25 1015.5
20260507225126 73 89 0.0 6.0 0.00 0.00 0.00 26 1015.6
20260507224634 73 311 1.0 6.0 0.00 0.00 0.00 25 1015.8
20260507224135 74 290 2.0 6.0 0.00 0.00 0.00 25 1015.7
20260507223622 74 304 1.0 6.0 0.00 0.00 0.00 26 1015.8
20260507223142 74 294 3.0 8.0 0.00 0.00 0.00 25 1015.9
20260507222629 74 250 5.0 8.0 0.00 0.00 0.00 25 1016.0
20260507222130 74 355 1.0 8.0 0.00 0.00 0.00 26 1016.0
20260507221611 74 231 5.0 8.0 0.00 0.00 0.00 25 1016.0
20260507221119 74 264 3.0 7.0 0.00 0.00 0.00 25 1016.1
20260507220620 74 205 3.0 7.0 0.00 0.00 0.00 26 1016.0
20260507220127 73 288 3.0 9.0 0.00 0.00 0.00 26 1016.2
20260507215628 73 289 5.0 9.0 0.00 0.00 0.00 25 1016.3
20260507215135 73 258 3.0 8.0 0.00 0.00 0.00 26 1016.3
20260507214637 73 299 3.0 9.0 0.00 0.00 0.00 26 1016.4
20260507214116 73 321 3.0 10.0 0.00 0.00 0.00 25 1016.4
20260507213623 73 311 3.0 10.0 0.00 0.00 0.00 25 1016.5
20260507213125 73 304 4.0 15.0 0.00 0.00 0.00 25 1016.6
20260507212625 73 286 3.0 15.0 0.00 0.00 0.00 25 1016.7
20260507212133 73 265 3.0 6.0 0.00 0.00 0.00 25 1016.7
20260507211613 74 312 3.0 6.0 0.00 0.00 0.00 23 1016.8
20260507211142 74 243 2.0 10.0 0.00 0.00 0.00 25 1016.8
20260507210645 74 178 4.0 10.0 0.00 0.00 0.00 24 1017.0
20260507210115 73 238 4.0 10.0 0.00 0.00 0.00 25 1017.0
20260507205657 73 269 2.0 6.0 0.00 0.00 0.00 23 1017.0
20260507205117 73 272 0.0 5.0 0.00 0.00 0.00 22 1017.0
20260507204637 73 246 0.0 5.0 0.00 0.00 0.00 26 1017.2
20260507204123 72 311 3.0 7.0 0.00 0.00 0.00 24 1017.2
20260507203624 73 245 3.0 7.0 0.00 0.00 0.00 23 1017.2
20260507203125 72 245 2.0 6.0 0.00 0.00 0.00 25 1017.3
20260507202613 72 232 3.0 4.0 0.00 0.00 0.00 24 1017.4
20260507202113 72 308 2.0 6.0 0.00 0.00 0.00 24 1017.4
20260507201614 72 283 2.0 6.0 0.00 0.00 0.00 22 1017.5
20260507201122 73 240 2.0 4.0 0.00 0.00 0.00 24 1017.5
20260507200623 73 233 2.0 3.0 0.00 0.00 0.00 24 1017.5
20260507200150 72 138 0.0 6.0 0.00 0.00 0.00 22 1017.5
20260507195630 71 236 1.0 6.0 0.00 0.00 0.00 24 1017.6
20260507195111 70 265 3.0 6.0 0.00 0.00 0.00 25 1017.7
20260507194619 70 266 3.0 6.0 0.00 0.00 0.00 24 1017.7
20260507194120 70 243 2.0 3.0 0.00 0.00 0.00 23 1017.7
20260507193648 70 267 1.0 4.0 0.00 0.00 0.00 25 1017.8
20260507193128 70 266 2.0 7.0 0.00 0.00 0.00 23 1017.8
20260507192636 71 310 2.0 7.0 0.00 0.00 0.00 22 1017.9
20260507192117 71 262 1.0 7.0 0.00 0.00 0.00 21 1017.8
20260507191616 72 230 3.0 6.0 0.00 0.00 0.00 23 1018.0
20260507191117 72 264 1.0 7.0 0.00 0.00 0.00 25 1018.0
20260507190623 71 160 4.0 7.0 0.00 0.00 0.00 23 1018.0
20260507190123 71 118 3.0 5.0 0.00 0.00 0.00 23 1018.0
20260507185629 70 127 0.0 3.0 0.00 0.00 0.00 24 1018.1
20260507185114 70 89 1.0 3.0 0.00 0.00 0.00 26 1018.1
20260507184638 70 348 0.0 3.0 0.00 0.00 0.00 25 1018.2
20260507184138 69 115 0.0 3.0 0.00 0.00 0.00 24 1018.3
20260507183625 68 150 1.0 3.0 0.00 0.00 0.00 26 1018.3
20260507183126 68 138 2.0 5.0 0.00 0.00 0.00 27 1018.3
20260507182632 67 252 1.0 5.0 0.00 0.00 0.00 27 1018.5
20260507182134 67 257 1.0 3.0 0.00 0.00 0.00 26 1018.5
20260507181621 67 264 1.0 5.0 0.00 0.00 0.00 27 1018.5